www.pogodaiklimat.ru

Погода и климат >> Архив погоды >> Россия >> Калмыкия >> Комсомольский


ПОГОДА в Комсомольском

  • Прогноз погоды в Комсомольском
  • Монитор погоды в Комсомольском
  • Климат города

АРХИВ ПОГОДЫ в Комсомольском

Время (UTC), дата Ветер
(напр.,м/с)
 
Видим.   Явления Облачность Т
(С)
Тd
(С)
f
(%)
Тe
(С)
Тes
(С)
Комфортность P
(гПа)
Po
(гПа)
Тmin
(С)
Tmax
(С)
R
(мм)
R24
(мм)
S
(см)
03 10.12 ЮВ 2 4000 м дымка ясно -1.7 -2.2 96 -6 -6 1024.3 1024.7 -2.3
06 10.12 ЮВ 2 4000 м дымка 3/0
[Ac trans Ci fib]
+0.9 +0.5 97 -3 -2 1023.9 1024.3
09 10.12 ЮВ 3 20 км 1/0
[Ac trans]
+8.4 +4.3 75 +6 +8 1022.7 1023.1
12 10.12 ЮВ 4 20 км 3/3 600 м
[Sc]
+8.0 +3.3 72 +5 +5 1021.8 1022.2
15 10.12 В 3 4000 м дымка 1/0
[Ac trans]
+2.4 +1.4 93 -2 -2 1021.7 1022.1 +9.3
18 10.12 В 3 4000 м дымка 10/10 540 м
[Sc]
+3.2 +2.8 97 -1 -1 1020.1 1020.5
21 10.12 В 5
{10}
4000 м в посл. час туман 10/10 330 м
[St]
+3.9 +3.7 99 -1 -1 1018.8 1019.2
00 11.12 В 3 4000 м дымка {туман} 10/10 360 м
[St]
+4.5 +4.2 98 +1 +1 1019.0 1019.4
03 11.12 В 3 4000 м дымка 10/10 540 м
[Sc]
+4.6 +3.8 95 +1 +1 1019.2 1019.6 +2.0
06 11.12 СЗ 1 4000 м дымка 10/10 400 м
[Cb cap]
+4.9 +3.9 93 +3 +3 1022.7 1023.1
09 11.12 С 2 4000 м дымка 10/10 570 м
[Sc]
+5.7 +4.4 91 +3 +3 1024.1 1024.5
12 11.12 СЗ 3 20 км 9/9 600 м
[Sc Ac und]
+7.2 +4.6 84 +4 +4 1025.6 1026.0
15 11.12 СЗ 2 20 км ясно +3.9 +1.3 83 +1 +1 1027.9 1028.3 +8.0
18 11.12 З 2 4000 м дымка ясно +1.0 -0.1 92 -3 -3 1028.3 1028.8
21 11.12 В 1 4000 м дымка 10/10 600 м
[Sc]
+0.7 -0.3 93 -1 -1 1028.6 1029.0
00 12.12 штиль 0 4000 м дымка 8/8 600 м
[Sc Ac und]
+1.2 +0.1 92 0 0 1028.1 1028.5
03 12.12 штиль 0 4000 м дымка 8/8 600 м
[Sc Ac und]
+1.3 0.0 91 0 0 1028.7 1029.1 +0.2
06 12.12 ЮЗ 1 4000 м дымка 8/8 600 м
[Sc Ac trans]
+1.4 +0.7 95 -1 -0 1028.9 1029.3
09 12.12 Ю 3 20 км 10/10 570 м
[Sc]
+5.7 +2.7 81 +2 +2 1027.8 1028.2
12 12.12 штиль 0 20 км 10/10 600 м
[Sc]
+6.6 +2.4 75 +6 +6 1028.1 1028.5
15 12.12 ЮВ 1 20 км 10/10 570 м
[Sc]
+5.3 +2.5 82 +4 +4 1028.2 1028.6 +6.6
18 12.12 Ю 1 20 км {морось} 10/10 540 м
[Sc]
+4.7 +1.7 81 +3 +3 1028.3 1028.6
21 12.12 Ю 3 4000 м дымка 10/10 570 м
[Sc]
+3.3 +2.4 94 -1 -1 1027.3 1027.8
00 13.12 ЮВ 2 4000 м дымка 10/10 540 м
[Sc]
+2.8 +2.1 95 -1 -1 1026.9 1027.3
03 13.12 Ю 2 500 м туман н/о +2.3 +2.2 99 -1 -1 1026.6 1027.0 +2.0
06 13.12 ЮВ 2 500 м туман н/о +3.0 +2.8 99 -0 -0 1026.7 1027.1 +1.8
09 13.12 Ю 4 20 км {туман} 10/10 600 м
[Sc]
+8.9 +6.7 86 +6 +6 1025.5 1025.9
12 13.12 ЮВ 4 20 км {туман} 8/8 600 м
[Sc Ac trans]
+8.6 +5.3 80 +6 +6 1024.7 1025.1
15 13.12 ЮВ 3 20 км ясно +4.6 +3.2 91 +1 +1 1025.2 1025.6 +9.7
18 13.12 ЮВ 3 4000 м дымка 8/8 600 м
[Sc Ac trans]
+3.6 +2.6 93 -0 -0 1024.8 1025.2
21 13.12 ЮВ 4 20 км 10/10 600 м
[Sc]
+5.9 +3.7 86 +2 +2 1024.1 1024.5
00 14.12 ЮВ 4-10
{10}
20 км 10/10 600 м
[Sc]
+6.1 +3.1 81 +2 +2 1024.0 1024.4
03 14.12 ЮВ 5
{12}
20 км 10/10 570 м
[Sc]
+5.9 +3.0 82 +2 +2 1024.1 1024.5 +3.5
06 14.12 ЮВ 6-12
{12}
20 км 10/10 540 м
[Sc]
+5.6 +2.6 81 +1 +1 1024.7 1025.1
09 14.12 ЮВ 6-11
{13}
20 км 10/10 570 м
[Sc]
+6.3 +2.5 77 +2 +2 1023.5 1023.9
12 14.12 ЮВ 6-12
{13}
20 км 10/10 540 м
[Sc]
+5.2 +1.9 79 0 0 1022.1 1022.5
15 14.12 ЮВ 5
{14}
20 км 10/10 540 м
[Sc]
+3.7 +1.3 84 -1 -1 1022.5 1022.9 +6.4
18 14.12 ЮВ 4
{10}
20 км 10/10 540 м
[Sc]
+3.5 +1.1 84 -1 -1 1022.3 1022.7
21 14.12 В 5 20 км 10/10 540 м
[Sc]
+3.6 +1.6 87 -2 -2 1020.7 1021.1
00 15.12 В 5 20 км 10/10 540 м
[Sc]
+3.9 +1.8 86 -1 -1 1020.7 1021.1
03 15.12 В 5 20 км 10/10 540 м
[Sc]
+3.8 +2.0 88 -1 -1 1021.3 1021.7 +3.2
06 15.12 В 5
{10}
20 км 10/10 540 м
[Sc]
+4.6 +2.8 88 -0 -0 1022.3 1022.7
09 15.12 ЮВ 6-12
{13}
20 км 10/10 540 м
[Sc]
+6.6 +3.3 79 +2 +2 1020.8 1021.2
12 15.12 ЮВ 5-10
{12}
20 км 10/10 540 м
[Sc]
+6.6 +2.7 76 +3 +3 1021.7 1022.1
15 15.12 В 5
{12}
20 км 10/10 540 м
[Sc]
+4.6 +2.9 89 -0 -0 1022.8 1023.2 +7.2
18 15.12 В 4 4000 м дымка {морось} 10/10 400 м
[St]
+3.3 +2.0 91 -1 -1 1023.4 1023.8
21 15.12 В 3 4000 м в посл. час морось 10/10 360 м
[St]
+3.6 +2.4 92 -0 -0 1023.1 1023.5
00 16.12 В 2 20 км {морось} 10/10 540 м
[Sc]
+4.5 +2.9 89 +2 +2 1024.5 1024.9
03 16.12 В 2 4000 м дымка 10/10 570 м
[Sc]
+4.8 +4.3 97 +2 +2 1025.0 1025.4 +3.2 0.0
06 16.12 В 4 4000 м дымка 10/10 600 м
[Sc]
+4.8 +4.1 95 0 0 1025.9 1026.3
09 16.12 ЮВ 3 4000 м дымка 10/10 600 м
[Sc]
+5.9 +4.9 93 +2 +2 1025.1 1025.6
12 16.12 В 5 4000 м дымка 10/10 540 м
[Sc]
+6.2 +5.2 93 +2 +2 1024.8 1025.2
15 16.12 В 4 4000 м слабая морось 10/10 330 м
[Sc]
+5.4 +4.8 96 +1 +1 1026.0 1026.4 +6.9
18 16.12 В 4 4000 м слабая морось 10/10 330 м
[St]
+4.7 +4.1 96 0 0 1026.1 1026.5
21 16.12 В 4 4000 м дымка {морось} 10/10 600 м
[Sc]
+4.4 +3.1 91 0 0 1025.8 1026.2

 

Местоположение метеостанции Комсомольский (Калмыкия, Россия): широта 45.35 долгота 46.03 высота над уровнем моря -2 м.

В архиве по умолчанию представлена погода в Комсомольском за последнюю неделю. Архивные данные за месяц целиком и за предыдущие месяцы, начиная с января 2011 года, Вы можете получить, выбрав интересующий диапазон дат из раскрывающегося списка и нажав кнопку "Ввод!".

Внимание! Время в таблицах - всемирное. Для получения местного времени необходимо прибавить поправку, которая в Комсомольском равна 3 ч.

Смотрите также архив погоды в соседних городах и на ближайших метеорологических станциях:

Погода в Артезиане (Калмыкия, Россия) (70 км)
Погода в Южно-Сухокумске (Дагестан, Россия) (83 км)
Погода в Лагани (Калмыкия, Россия) (103 км)
Погода в Лимане (Астраханская область, Россия) (105 км)
Погода в Яшкуле (Калмыкия, Россия) (106 км)
Погода в Кочубее (Дагестан, Россия) (113 км)
Погода в Утте (Калмыкия, Россия) (113 км)
Погода в Ики-Буруле (Калмыкия, Россия) (120 км)
Погода в Терекли-Мектебе (Дагестан, Россия) (136 км)
Погода в Арзгире (Ставропольский край, Россия) (143 км)

Пояснения к столбцам:

Ветер - указаны скорость ветра в м/с - средняя за 10 мин, порывы в срок и между сроками (в фигурных скобках) и направление, откуда дует ветер: С - северный, СВ - северо-восточный, В - восточный, ЮВ - юго-восточный, Ю - южный, ЮЗ - юго-западный, З - западный, СЗ - северо-западный.
Видимость - горизонтальная дальность видимости в метрах или километрах. При видимости от 1 до 10 км при отсутствии осадков обычно наблюдается дымка, при ухудшении видимости до 1 км и менее - туман. В сухую погоду видимость может ухудшаться дымом, пылью или мглою.
Явления - указаны атмосферные явления, наблюдавшиеся в срок или в последний час перед сроком; фигурными скобками обозначены явления, наблюдавшиеся между сроками (за 1-3 часа до срока); квадратными скобками обозначены град или гололедные отложения с указанием их диаметра в мм.
Облачность - указаны через наклонную черту общая и нижняя облачность в баллах и высота нижней границы облаков в метрах; квадратными скобками обозначены формы облаков: Ci - перистые, Cs - перисто-слоистые, Cc - перисто-кучевые, Ac - высококучевые, As - высокослоистые, Sc - слоисто-кучевые, Ns - слоисто-дождевые, Cu - кучевые, Cb - кучево-дождевые. Подробнее классификацию облаков см. в Атласе облаков (PDF).
T - Температура воздуха - температура, измеренная на высоте 2 м над землей.
Td - Температура точки росы - температура, при понижении до которой содержащийся в воздухе водяной пар достигнет насыщения.
f - Относительная влажность воздуха - влажноcть воздуха, измеренная на высоте 2 м над землей.
Te - Эффективная температура - температура, которую ощущает одетый по сезону человек в тени. Характеристика душности погоды. При расчете учитывается влияние влажности воздуха и скорости ветра на теплоощущения человека.
Tes - Эффективная температура на солнце - температура, которую ощущает человек, с поправкой на солнечный нагрев. Характеристика знойности погоды. Зависит от высоты солнца над горизонтом, облачности и скорости ветра. Ночью, в пасмурную погоду, а также при ветре 12 м/с и более поправка равна нулю.
P - Атмосферное давление - приведенное к уровню моря атмосферное давление.
Po - Атмосферное давление - измеренное на уровне метеостанции атмосферное давление.
Tmin - Минимальная температура - минимум температуры воздуха на высоте 2 м над землей.
Tmax - Максимальная температура - максимум температуры воздуха на высоте 2 м над землей.
R - Количество осадков - Количество выпавших осадков за период времени, мм. При наведении курсора мыши на число - период времени, за который выпало указанное количество осадков.
R24 - Количество осадков - Количество выпавших осадков за 24 часа, мм.
S - Снежный покров - Высота снежного покрова, см. При наведении курсора мыши на число - состояние снежного покрова и степень покрытия местности в баллах.